Terminal Aerodrome Forecast
Issued by NWS Pittsburgh, PA

Current Version | Previous Version | Graphics & Text | Print | Product List | Glossary On
Versions: 1 2 3 4 5 6 7 8 9 10 11 12 13 14 15 16 17 18 19 20 21 22 23 24 25 26 27 28 29 30
807
FTUS41 KPBZ 231141
TAFPIT
TAF
KPIT 231141Z 2312/2418 21008KT 3SM -SHRA BR OVC006
     FM231400 22006KT 6SM -SHRA OVC015
     FM231800 23012G20KT 5SM SHRA VCTS OVC020CB
     FM240000 23008KT 3SM SHRA BR OVC008
     FM240400 26004KT P6SM VCSH OVC006=

USA.gov is the U.S. government's official web portal to all federal, state and local government web resources and services.